Time,TemperatureF,DewpointF,PressureIn,WindDirection,WindDirectionDegrees,WindSpeedMPH,WindSpeedGustMPH,Humidity,HourlyPrecipIn,Conditions,Clouds,dailyrainin,SoftwareType,DateUTC
2013-03-11 00:00:00,49.6,17.9,30.06,West,266,2.2,4.9,28,0.00,,---,0.00,VWS V14.01,2013-03-11 04:00:00,
2013-03-11 00:01:00,49.8,18.0,30.06,NW,320,2.7,4.0,28,0.00,,---,0.00,VWS V14.01,2013-03-11 04:01:00,
2013-03-11 00:06:00,48.9,17.3,30.06,West,277,0.0,2.7,28,0.00,,---,0.00,VWS V14.01,2013-03-11 04:06:00,
2013-03-11 00:11:00,48.6,17.8,30.06,West,271,0.0,0.0,29,0.00,,---,0.00,VWS V14.01,2013-03-11 04:11:00,
2013-03-11 00:16:00,48.2,16.6,30.06,WSW,240,3.6,3.6,28,0.00,,---,0.00,VWS V14.01,2013-03-11 04:16:00,
2013-03-11 00:21:00,49.1,17.4,30.06,SW,225,2.7,3.1,28,0.00,,---,0.00,VWS V14.01,2013-03-11 04:21:00,
2013-03-11 00:26:00,49.5,17.7,30.06,NW,322,0.0,4.9,28,0.00,,---,0.00,VWS V14.01,2013-03-11 04:26:00,
2013-03-11 00:32:00,49.1,17.4,30.06,NW,319,4.0,4.0,28,0.00,,---,0.00,VWS V14.01,2013-03-11 04:32:00,
2013-03-11 00:37:00,49.8,18.0,30.06,WNW,283,2.7,6.3,28,0.00,,---,0.00,VWS V14.01,2013-03-11 04:37:00,
2013-03-11 00:42:00,49.5,17.7,30.06,NE,45,0.0,3.1,28,0.00,,---,0.00,VWS V14.01,2013-03-11 04:42:00,
2013-03-11 00:47:00,48.0,16.5,30.06,WSW,243,2.2,5.4,28,0.00,,---,0.00,VWS V14.01,2013-03-11 04:47:00,
2013-03-11 00:52:00,48.0,16.5,30.06,West,277,5.4,5.8,28,0.00,,---,0.00,VWS V14.01,2013-03-11 04:52:00,
2013-03-11 00:57:00,48.0,17.3,30.06,East,88,0.0,2.2,29,0.00,,---,0.00,VWS V14.01,2013-03-11 04:57:00,
2013-03-11 01:02:00,47.5,16.0,30.06,NW,308,4.0,6.3,28,0.00,,---,0.00,VWS V14.01,2013-03-11 05:02:00,
2013-03-11 01:07:00,48.6,17.0,30.06,WNW,282,0.0,5.8,28,0.00,,---,0.00,VWS V14.01,2013-03-11 05:07:00,
2013-03-11 01:12:00,49.1,17.4,30.06,SW,227,0.0,5.8,28,0.00,,---,0.00,VWS V14.01,2013-03-11 05:12:00,
2013-03-11 01:17:00,48.2,16.6,30.06,NNW,332,3.1,3.1,28,0.00,,---,0.00,VWS V14.01,2013-03-11 05:17:00,
2013-03-11 01:23:00,46.6,16.0,30.06,NE,52,2.7,4.0,29,0.00,,---,0.00,VWS V14.01,2013-03-11 05:23:00,
2013-03-11 01:28:00,46.8,16.2,30.06,North,353,2.7,3.1,29,0.00,,---,0.00,VWS V14.01,2013-03-11 05:28:00,
2013-03-11 01:33:00,45.3,15.7,30.06,NNE,20,0.0,0.0,30,0.00,,---,0.00,VWS V14.01,2013-03-11 05:33:00,
2013-03-11 01:38:00,44.1,16.1,30.06,NNE,25,4.0,4.0,32,0.00,,---,0.00,VWS V14.01,2013-03-11 05:38:00,
2013-03-11 01:43:00,45.0,14.6,30.06,NW,311,3.1,3.1,29,0.00,,---,0.00,VWS V14.01,2013-03-11 05:43:00,
2013-03-11 01:48:00,46.0,16.4,30.06,WNW,294,3.6,5.8,30,0.00,,---,0.00,VWS V14.01,2013-03-11 05:48:00,
2013-03-11 01:53:00,46.0,15.6,30.06,SSW,211,4.0,5.8,29,0.00,,---,0.00,VWS V14.01,2013-03-11 05:53:00,
2013-03-11 01:58:00,46.9,15.6,30.03,WSW,247,2.2,6.3,28,0.00,,---,0.00,VWS V14.01,2013-03-11 05:58:00,
2013-03-11 02:03:00,46.9,16.4,30.03,North,353,0.0,0.0,29,0.00,,---,0.00,VWS V14.01,2013-03-11 06:03:00,
2013-03-11 02:08:00,45.9,15.4,30.03,WNW,300,5.4,5.4,29,0.00,,---,0.00,VWS V14.01,2013-03-11 06:08:00,
2013-03-11 02:13:00,46.2,15.7,30.06,NW,320,2.7,2.7,29,0.00,,---,0.00,VWS V14.01,2013-03-11 06:13:00,
2013-03-11 02:19:00,46.0,16.4,30.06,NNW,327,4.0,4.0,30,0.00,,---,0.00,VWS V14.01,2013-03-11 06:19:00,
2013-03-11 02:24:00,45.0,15.4,30.06,NW,309,3.1,3.1,30,0.00,,---,0.00,VWS V14.01,2013-03-11 06:24:00,
2013-03-11 02:29:00,44.8,15.3,30.03,NW,317,3.1,6.3,30,0.00,,---,0.00,VWS V14.01,2013-03-11 06:29:00,
2013-03-11 02:34:00,44.4,15.7,30.03,West,281,0.0,4.0,31,0.00,,---,0.00,VWS V14.01,2013-03-11 06:34:00,
2013-03-11 02:39:00,45.0,15.4,30.03,SW,236,0.0,2.7,30,0.00,,---,0.00,VWS V14.01,2013-03-11 06:39:00,
2013-03-11 02:44:00,45.3,14.9,30.03,SSE,153,5.4,5.4,29,0.00,,---,0.00,VWS V14.01,2013-03-11 06:44:00,
2013-03-11 02:49:00,46.8,16.2,30.03,WSW,246,5.8,5.8,29,0.00,,---,0.00,VWS V14.01,2013-03-11 06:49:00,
2013-03-11 02:54:00,46.9,15.6,30.03,SSW,193,4.0,4.9,28,0.00,,---,0.00,VWS V14.01,2013-03-11 06:54:00,
2013-03-11 02:59:00,47.5,16.8,30.03,West,265,4.0,4.0,29,0.00,,---,0.00,VWS V14.01,2013-03-11 06:59:00,
2013-03-11 03:04:00,47.7,16.2,30.03,WSW,237,3.1,8.3,28,0.00,,---,0.00,VWS V14.01,2013-03-11 07:04:00,
2013-03-11 03:09:00,48.0,16.5,30.03,SW,233,3.1,5.4,28,0.00,,---,0.00,VWS V14.01,2013-03-11 07:09:00,
2013-03-11 03:14:00,47.8,16.3,30.03,North,357,3.6,3.6,28,0.00,,---,0.00,VWS V14.01,2013-03-11 07:14:00,
2013-03-11 03:19:00,47.3,15.9,30.03,NW,305,2.7,5.8,28,0.00,,---,0.00,VWS V14.01,2013-03-11 07:19:00,
2013-03-11 03:24:00,47.5,16.0,30.03,SW,222,0.0,2.2,28,0.00,,---,0.00,VWS V14.01,2013-03-11 07:24:00,
2013-03-11 03:29:00,47.1,15.7,30.03,SW,224,8.3,10.1,28,0.00,,---,0.00,VWS V14.01,2013-03-11 07:29:00,
2013-03-11 03:35:00,47.7,16.2,30.03,WSW,258,5.4,8.7,28,0.00,,---,0.00,VWS V14.01,2013-03-11 07:35:00,
2013-03-11 03:40:00,48.4,16.0,30.03,WNW,285,5.8,7.6,27,0.00,,---,0.00,VWS V14.01,2013-03-11 07:40:00,
2013-03-11 03:45:00,48.7,16.3,30.03,SW,228,3.1,8.7,27,0.00,,---,0.00,VWS V14.01,2013-03-11 07:45:00,
2013-03-11 03:50:00,48.9,16.4,30.03,West,268,4.9,6.3,27,0.00,,---,0.00,VWS V14.01,2013-03-11 07:50:00,
2013-03-11 03:55:00,48.7,16.3,30.03,WNW,297,7.2,7.2,27,0.00,,---,0.00,VWS V14.01,2013-03-11 07:55:00,
2013-03-11 04:00:00,47.8,16.3,30.01,NW,305,5.8,5.8,28,0.00,,---,0.00,VWS V14.01,2013-03-11 08:00:00,
2013-03-11 04:05:00,48.0,15.6,30.01,West,277,2.7,3.1,27,0.00,,---,0.00,VWS V14.01,2013-03-11 08:05:00,
2013-03-11 04:10:00,47.3,15.9,30.01,WSW,241,5.4,6.3,28,0.00,,---,0.00,VWS V14.01,2013-03-11 08:10:00,
2013-03-11 04:15:00,46.9,15.6,30.01,North,0,10.5,10.5,28,0.00,,---,0.00,VWS V14.01,2013-03-11 08:15:00,
2013-03-11 04:20:00,46.9,15.6,30.01,NNE,21,2.7,3.1,28,0.00,,---,0.00,VWS V14.01,2013-03-11 08:20:00,
2013-03-11 04:25:00,45.9,14.6,30.01,WSW,258,5.8,5.8,28,0.00,,---,0.00,VWS V14.01,2013-03-11 08:25:00,
2013-03-11 04:30:00,46.0,14.8,30.01,East,88,4.0,4.5,28,0.00,,---,0.00,VWS V14.01,2013-03-11 08:30:00,
2013-03-11 04:35:00,45.9,15.4,30.01,NE,56,4.9,4.9,29,0.00,,---,0.00,VWS V14.01,2013-03-11 08:35:00,
2013-03-11 04:40:00,46.8,15.4,30.01,West,271,3.1,10.1,28,0.00,,---,0.00,VWS V14.01,2013-03-11 08:40:00,
2013-03-11 04:45:00,47.5,16.0,30.01,WSW,254,4.0,4.0,28,0.00,,---,0.00,VWS V14.01,2013-03-11 08:45:00,
2013-03-11 04:50:00,47.8,16.3,30.01,WNW,297,5.4,5.4,28,0.00,,---,0.00,VWS V14.01,2013-03-11 08:50:00,
2013-03-11 04:56:00,48.0,15.6,30.01,West,265,5.4,6.3,27,0.00,,---,0.00,VWS V14.01,2013-03-11 08:56:00,
2013-03-11 05:01:00,48.0,15.6,30.01,WNW,297,3.6,5.4,27,0.00,,---,0.00,VWS V14.01,2013-03-11 09:01:00,
2013-03-11 05:06:00,48.4,16.0,30.01,WSW,254,2.7,4.0,27,0.00,,---,0.00,VWS V14.01,2013-03-11 09:06:00,
2013-03-11 05:11:00,47.8,16.3,30.01,WSW,251,2.7,2.7,28,0.00,,---,0.00,VWS V14.01,2013-03-11 09:11:00,
2013-03-11 05:16:00,47.3,15.9,30.01,NNE,22,0.0,2.2,28,0.00,,---,0.00,VWS V14.01,2013-03-11 09:16:00,
2013-03-11 05:21:00,46.8,15.4,30.01,WNW,289,7.6,8.1,28,0.00,,---,0.00,VWS V14.01,2013-03-11 09:21:00,
2013-03-11 05:27:00,47.3,15.9,29.98,South,179,2.7,3.6,28,0.00,,---,0.00,VWS V14.01,2013-03-11 09:27:00,
2013-03-11 05:32:00,46.4,15.1,29.98,SE,131,3.6,4.0,28,0.00,,---,0.00,VWS V14.01,2013-03-11 09:32:00,
2013-03-11 05:37:00,46.4,15.9,29.98,West,275,2.7,3.6,29,0.00,,---,0.00,VWS V14.01,2013-03-11 09:37:00,
2013-03-11 05:42:00,46.2,15.7,29.98,SSW,195,2.2,2.2,29,0.00,,---,0.00,VWS V14.01,2013-03-11 09:42:00,
2013-03-11 05:47:00,45.3,15.7,29.98,NE,56,3.1,4.0,30,0.00,,---,0.00,VWS V14.01,2013-03-11 09:47:00,
2013-03-11 05:52:00,44.8,14.5,29.98,SW,231,2.7,2.7,29,0.00,,---,0.00,VWS V14.01,2013-03-11 09:52:00,
2013-03-11 05:57:00,45.7,15.3,30.01,WSW,256,6.3,8.1,29,0.00,,---,0.00,VWS V14.01,2013-03-11 09:57:00,
2013-03-11 06:02:00,46.2,15.7,30.01,NNW,331,4.0,4.0,29,0.00,,---,0.00,VWS V14.01,2013-03-11 10:02:00,
2013-03-11 06:07:00,46.4,15.1,30.01,ENE,71,0.0,4.9,28,0.00,,---,0.00,VWS V14.01,2013-03-11 10:07:00,
2013-03-11 06:12:00,46.2,14.9,30.01,NW,322,5.4,5.4,28,0.00,,---,0.00,VWS V14.01,2013-03-11 10:12:00,
2013-03-11 06:17:00,45.9,15.4,30.01,ENE,60,2.2,4.0,29,0.00,,---,0.00,VWS V14.01,2013-03-11 10:17:00,
2013-03-11 06:22:00,44.4,14.9,30.01,NE,53,0.0,0.0,30,0.00,,---,0.00,VWS V14.01,2013-03-11 10:22:00,
2013-03-11 06:28:00,43.7,14.3,29.98,WSW,241,0.0,2.7,30,0.00,,---,0.00,VWS V14.01,2013-03-11 10:28:00,
2013-03-11 06:33:00,43.7,14.3,29.98,West,277,5.8,5.8,30,0.00,,---,0.00,VWS V14.01,2013-03-11 10:33:00,
2013-03-11 06:38:00,44.2,14.8,29.98,West,261,0.0,2.7,30,0.00,,---,0.00,VWS V14.01,2013-03-11 10:38:00,
2013-03-11 06:43:00,44.8,15.3,29.98,WSW,256,3.6,3.6,30,0.00,,---,0.00,VWS V14.01,2013-03-11 10:43:00,
2013-03-11 06:48:00,45.5,15.1,29.98,WSW,241,0.0,3.6,29,0.00,,---,0.00,VWS V14.01,2013-03-11 10:48:00,
2013-03-11 06:53:00,44.6,15.1,29.98,ENE,77,0.0,0.0,30,0.00,,---,0.00,VWS V14.01,2013-03-11 10:53:00,
2013-03-11 06:58:00,43.3,14.8,30.01,SW,219,0.0,0.0,31,0.00,,---,0.00,VWS V14.01,2013-03-11 10:58:00,
2013-03-11 07:03:00,43.2,14.6,30.01,ENE,74,0.0,0.0,31,0.00,,---,0.00,VWS V14.01,2013-03-11 11:03:00,
2013-03-11 07:08:00,43.3,15.5,30.01,North,353,0.0,0.0,32,0.00,,---,0.00,VWS V14.01,2013-03-11 11:08:00,
2013-03-11 07:13:00,42.4,16.1,30.01,NE,42,4.9,4.9,34,0.00,,---,0.00,VWS V14.01,2013-03-11 11:13:00,
2013-03-11 07:18:00,41.9,16.3,30.01,NNE,13,3.1,3.1,35,0.00,,---,0.00,VWS V14.01,2013-03-11 11:18:00,
2013-03-11 07:23:00,41.5,17.8,30.01,North,353,2.7,3.1,38,0.00,,---,0.00,VWS V14.01,2013-03-11 11:23:00,
2013-03-11 07:28:00,41.5,17.2,29.98,SW,214,2.7,2.7,37,0.00,,---,0.00,VWS V14.01,2013-03-11 11:28:00,
2013-03-11 07:33:00,43.0,15.2,29.98,WNW,302,2.7,2.7,32,0.00,,---,0.00,VWS V14.01,2013-03-11 11:33:00,
2013-03-11 07:39:00,43.9,14.5,29.98,WSW,246,2.2,5.4,30,0.00,,---,0.00,VWS V14.01,2013-03-11 11:39:00,
2013-03-11 07:44:00,45.0,14.6,29.98,West,279,4.0,4.0,29,0.00,,---,0.00,VWS V14.01,2013-03-11 11:44:00,
2013-03-11 07:49:00,46.0,14.8,29.98,SSE,160,0.0,3.6,28,0.00,,---,0.00,VWS V14.01,2013-03-11 11:49:00,
2013-03-11 07:54:00,46.6,14.4,29.98,WNW,291,2.7,4.0,27,0.00,,---,0.00,VWS V14.01,2013-03-11 11:54:00,
2013-03-11 07:59:00,46.8,14.6,30.01,West,261,2.2,3.6,27,0.00,,---,0.00,VWS V14.01,2013-03-11 11:59:00,
2013-03-11 08:04:00,46.8,14.6,30.01,ENE,60,2.7,3.1,27,0.00,,---,0.00,VWS V14.01,2013-03-11 12:04:00,
2013-03-11 08:09:00,46.8,14.6,30.01,SW,214,0.0,3.1,27,0.00,,---,0.00,VWS V14.01,2013-03-11 12:09:00,
2013-03-11 08:14:00,46.8,14.6,30.01,West,265,4.9,5.4,27,0.00,,---,0.00,VWS V14.01,2013-03-11 12:14:00,
2013-03-11 08:19:00,46.0,14.8,30.01,West,260,2.2,2.2,28,0.00,,---,0.00,VWS V14.01,2013-03-11 12:19:00,
2013-03-11 08:24:00,45.5,13.5,30.01,West,269,5.8,6.7,27,0.00,,---,0.00,VWS V14.01,2013-03-11 12:24:00,
2013-03-11 08:29:00,46.2,14.1,29.98,NE,56,5.4,7.6,27,0.00,,---,0.00,VWS V14.01,2013-03-11 12:29:00,
2013-03-11 08:34:00,47.1,12.2,29.98,SSW,206,3.6,3.6,24,0.00,,---,0.00,VWS V14.01,2013-03-11 12:34:00,
2013-03-11 08:39:00,47.5,12.5,29.98,West,281,4.0,8.3,24,0.00,,---,0.00,VWS V14.01,2013-03-11 12:39:00,
2013-03-11 08:44:00,47.5,12.5,29.98,WSW,247,3.1,3.1,24,0.00,,---,0.00,VWS V14.01,2013-03-11 12:44:00,
2013-03-11 08:49:00,47.7,12.7,29.98,WNW,288,0.0,0.0,24,0.00,,---,0.00,VWS V14.01,2013-03-11 12:49:00,
2013-03-11 08:55:00,46.8,14.6,29.98,North,353,0.0,0.0,27,0.00,,---,0.00,VWS V14.01,2013-03-11 12:55:00,
2013-03-11 09:00:00,46.0,14.8,29.98,West,273,0.0,0.0,28,0.00,,---,0.00,VWS V14.01,2013-03-11 13:00:00,
2013-03-11 09:05:00,45.5,14.3,29.98,ENE,72,3.1,3.1,28,0.00,,---,0.00,VWS V14.01,2013-03-11 13:05:00,
2013-03-11 09:10:00,45.5,14.3,29.98,West,265,0.0,2.7,28,0.00,,---,0.00,VWS V14.01,2013-03-11 13:10:00,
2013-03-11 09:15:00,45.7,15.3,29.98,West,265,0.0,0.0,29,0.00,,---,0.00,VWS V14.01,2013-03-11 13:15:00,
2013-03-11 09:20:00,45.5,15.1,29.98,NNE,14,0.0,0.0,29,0.00,,---,0.00,VWS V14.01,2013-03-11 13:20:00,
2013-03-11 09:25:00,46.2,14.9,29.98,North,357,0.0,0.0,28,0.00,,---,0.00,VWS V14.01,2013-03-11 13:25:00,
2013-03-11 09:30:00,46.9,15.6,30.01,SSE,157,0.0,0.0,28,0.00,,---,0.00,VWS V14.01,2013-03-11 13:30:00,
2013-03-11 09:35:00,47.5,16.0,30.01,SW,227,3.1,4.0,28,0.00,,---,0.00,VWS V14.01,2013-03-11 13:35:00,
2013-03-11 09:40:00,47.8,16.3,30.01,SSW,210,0.0,0.0,28,0.00,,---,0.00,VWS V14.01,2013-03-11 13:40:00,
2013-03-11 09:45:00,48.0,16.5,30.01,SW,234,2.7,4.0,28,0.00,,---,0.00,VWS V14.01,2013-03-11 13:45:00,
2013-03-11 09:50:00,48.2,16.6,30.01,WSW,251,3.1,3.6,28,0.00,,---,0.00,VWS V14.01,2013-03-11 13:50:00,
2013-03-11 09:55:00,48.4,16.8,30.01,WSW,248,2.2,2.2,28,0.00,,---,0.00,VWS V14.01,2013-03-11 13:55:00,
2013-03-11 10:00:00,48.6,16.1,30.01,SW,219,3.6,3.6,27,0.00,,---,0.00,VWS V14.01,2013-03-11 14:00:00,
2013-03-11 10:05:00,48.6,17.0,30.01,SSW,209,3.6,4.0,28,0.00,,---,0.00,VWS V14.01,2013-03-11 14:05:00,
2013-03-11 10:10:00,48.6,16.1,30.01,West,259,6.3,6.3,27,0.00,,---,0.00,VWS V14.01,2013-03-11 14:10:00,
2013-03-11 10:15:00,48.6,16.1,30.01,WSW,242,2.7,2.7,27,0.00,,---,0.00,VWS V14.01,2013-03-11 14:15:00,
2013-03-11 10:21:00,48.6,16.1,30.01,WSW,250,4.0,4.0,27,0.00,,---,0.00,VWS V14.01,2013-03-11 14:21:00,
2013-03-11 10:26:00,48.7,16.3,30.01,WSW,256,2.7,3.6,27,0.00,,---,0.00,VWS V14.01,2013-03-11 14:26:00,
2013-03-11 10:31:00,48.7,16.3,30.01,WSW,253,2.7,2.7,27,0.00,,---,0.00,VWS V14.01,2013-03-11 14:31:00,
2013-03-11 10:36:00,48.9,16.4,30.01,WSW,253,0.0,0.0,27,0.00,,---,0.00,VWS V14.01,2013-03-11 14:36:00,
2013-03-11 10:41:00,48.9,16.4,30.01,SW,225,2.2,3.1,27,0.00,,---,0.00,VWS V14.01,2013-03-11 14:41:00,
2013-03-11 10:46:00,49.1,16.6,30.01,SW,217,0.0,0.0,27,0.00,,---,0.00,VWS V14.01,2013-03-11 14:46:00,
2013-03-11 10:51:00,49.3,16.7,30.01,SW,217,0.0,0.0,27,0.00,,---,0.00,VWS V14.01,2013-03-11 14:51:00,
2013-03-11 10:56:00,49.6,17.9,29.98,SW,216,0.0,0.0,28,0.00,,---,0.00,VWS V14.01,2013-03-11 14:56:00,
2013-03-11 11:01:00,49.8,18.0,29.98,SW,220,0.0,2.2,28,0.00,,---,0.00,VWS V14.01,2013-03-11 15:01:00,
2013-03-11 11:06:00,50.0,17.4,29.98,SW,224,0.0,0.0,27,0.00,,---,0.00,VWS V14.01,2013-03-11 15:06:00,
2013-03-11 11:12:00,50.2,18.4,29.98,SW,236,0.0,0.0,28,0.00,,---,0.00,VWS V14.01,2013-03-11 15:12:00,
2013-03-11 11:17:00,50.5,20.3,29.98,SW,232,2.2,2.2,30,0.00,,---,0.00,VWS V14.01,2013-03-11 15:17:00,
2013-03-11 11:22:00,50.9,22.8,29.98,WSW,258,6.3,6.3,33,0.00,,---,0.00,VWS V14.01,2013-03-11 15:22:00,
2013-03-11 11:27:00,51.3,21.7,29.98,WSW,238,3.1,4.9,31,0.00,,---,0.00,VWS V14.01,2013-03-11 15:27:00,
2013-03-11 11:32:00,51.6,23.5,29.98,West,261,5.4,5.4,33,0.00,,---,0.00,VWS V14.01,2013-03-11 15:32:00,
2013-03-11 11:37:00,51.6,23.5,29.98,WSW,247,5.8,5.8,33,0.00,,---,0.00,VWS V14.01,2013-03-11 15:37:00,
2013-03-11 11:42:00,51.8,23.6,29.98,WSW,254,8.3,8.3,33,0.00,,---,0.00,VWS V14.01,2013-03-11 15:42:00,
2013-03-11 11:47:00,51.8,23.6,29.98,WSW,248,4.0,5.8,33,0.00,,---,0.00,VWS V14.01,2013-03-11 15:47:00,
2013-03-11 11:52:00,52.0,24.5,29.98,WSW,250,6.3,8.7,34,0.00,,---,0.00,VWS V14.01,2013-03-11 15:52:00,
2013-03-11 11:57:00,51.6,23.5,29.98,North,349,3.6,3.6,33,0.00,,---,0.00,VWS V14.01,2013-03-11 15:57:00,
2013-03-11 12:02:00,51.4,22.6,29.98,North,353,4.9,4.9,32,0.00,,---,0.00,VWS V14.01,2013-03-11 16:02:00,
2013-03-11 12:07:00,51.3,23.2,29.98,NE,45,3.1,8.7,33,0.00,,---,0.00,VWS V14.01,2013-03-11 16:07:00,
2013-03-11 12:12:00,51.3,23.2,29.95,SW,220,5.8,5.8,33,0.00,,---,0.00,VWS V14.01,2013-03-11 16:12:00,
2013-03-11 12:17:00,50.9,22.1,29.95,NW,312,3.1,4.0,32,0.00,,---,0.00,VWS V14.01,2013-03-11 16:17:00,
2013-03-11 12:22:00,50.7,22.0,29.95,West,274,4.0,8.7,32,0.00,,---,0.00,VWS V14.01,2013-03-11 16:22:00,
2013-03-11 12:27:00,50.4,21.6,29.95,WNW,298,3.6,6.3,32,0.00,,---,0.00,VWS V14.01,2013-03-11 16:27:00,
2013-03-11 12:33:00,50.2,21.5,29.95,SW,235,4.9,10.5,32,0.00,,---,0.00,VWS V14.01,2013-03-11 16:33:00,
2013-03-11 12:38:00,50.2,21.5,29.95,South,174,4.0,4.0,32,0.00,,---,0.00,VWS V14.01,2013-03-11 16:38:00,
2013-03-11 12:43:00,50.2,20.7,29.98,ENE,66,3.1,4.9,31,0.00,,---,0.00,VWS V14.01,2013-03-11 16:43:00,
2013-03-11 12:48:00,50.2,20.7,29.98,NW,323,2.7,2.7,31,0.00,,---,0.00,VWS V14.01,2013-03-11 16:48:00,
2013-03-11 12:53:00,50.4,20.9,29.98,NW,313,3.6,3.6,31,0.00,,---,0.00,VWS V14.01,2013-03-11 16:53:00,
2013-03-11 12:58:00,50.7,20.4,29.95,SW,233,5.4,5.8,30,0.00,,---,0.00,VWS V14.01,2013-03-11 16:58:00,
2013-03-11 13:03:00,50.7,20.4,29.95,East,79,3.6,3.6,30,0.00,,---,0.00,VWS V14.01,2013-03-11 17:03:00,
2013-03-11 13:08:00,51.1,20.8,29.95,WSW,248,4.0,5.4,30,0.00,,---,0.00,VWS V14.01,2013-03-11 17:08:00,
2013-03-11 13:13:00,51.1,20.8,29.92,North,8,5.4,5.4,30,0.00,,---,0.00,VWS V14.01,2013-03-11 17:13:00,
2013-03-11 13:18:00,50.7,20.4,29.92,West,262,3.6,3.6,30,0.00,,---,0.00,VWS V14.01,2013-03-11 17:18:00,
2013-03-11 13:23:00,50.7,20.4,29.92,NNE,25,2.7,2.7,30,0.00,,---,0.00,VWS V14.01,2013-03-11 17:23:00,
2013-03-11 13:28:00,50.7,20.4,29.95,SW,236,9.6,9.6,30,0.00,,---,0.00,VWS V14.01,2013-03-11 17:28:00,
2013-03-11 13:33:00,50.5,21.0,29.95,NNE,24,3.1,6.3,31,0.00,,---,0.00,VWS V14.01,2013-03-11 17:33:00,
2013-03-11 13:38:00,50.4,20.9,29.95,NE,47,4.0,4.0,31,0.00,,---,0.00,VWS V14.01,2013-03-11 17:38:00,
2013-03-11 13:43:00,50.2,21.5,29.92,NE,35,0.0,0.0,32,0.00,,---,0.00,VWS V14.01,2013-03-11 17:43:00,
2013-03-11 13:48:00,50.0,21.3,29.92,ESE,109,2.2,2.2,32,0.00,,---,0.00,VWS V14.01,2013-03-11 17:48:00,
2013-03-11 13:53:00,50.0,21.3,29.92,WSW,251,5.4,5.4,32,0.00,,---,0.00,VWS V14.01,2013-03-11 17:53:00,
2013-03-11 13:59:00,49.8,21.9,29.92,WSW,250,4.0,4.0,33,0.00,,---,0.00,VWS V14.01,2013-03-11 17:59:00,
2013-03-11 14:04:00,49.5,22.3,29.92,West,275,4.9,8.3,34,0.00,,---,0.00,VWS V14.01,2013-03-11 18:04:00,
2013-03-11 14:09:00,49.1,22.6,29.92,West,276,4.0,4.0,35,0.00,,---,0.00,VWS V14.01,2013-03-11 18:09:00,
2013-03-11 14:14:00,48.9,22.5,29.92,West,262,3.6,4.0,35,0.00,,---,0.00,VWS V14.01,2013-03-11 18:14:00,
2013-03-11 14:19:00,48.9,22.5,29.92,WNW,303,0.0,5.8,35,0.00,,---,0.00,VWS V14.01,2013-03-11 18:19:00,
2013-03-11 14:24:00,48.7,22.3,29.92,ENE,59,0.0,2.7,35,0.00,,---,0.00,VWS V14.01,2013-03-11 18:24:00,
2013-03-11 14:29:00,48.7,23.0,29.92,WSW,253,2.7,4.9,36,0.00,,---,0.00,VWS V14.01,2013-03-11 18:29:00,
2013-03-11 14:34:00,48.7,23.6,29.92,SW,229,6.3,6.3,37,0.00,,---,0.00,VWS V14.01,2013-03-11 18:34:00,
2013-03-11 14:39:00,48.7,23.6,29.92,SW,236,0.0,0.0,37,0.00,,---,0.00,VWS V14.01,2013-03-11 18:39:00,
2013-03-11 14:44:00,48.6,23.5,29.92,East,81,2.7,2.7,37,0.00,,---,0.00,VWS V14.01,2013-03-11 18:44:00,
2013-03-11 14:49:00,48.4,24.0,29.92,West,281,0.0,0.0,38,0.00,,---,0.00,VWS V14.01,2013-03-11 18:49:00,
2013-03-11 14:54:00,48.4,24.0,29.92,North,357,0.0,0.0,38,0.00,,---,0.00,VWS V14.01,2013-03-11 18:54:00,
2013-03-11 14:59:00,48.7,24.3,29.92,North,357,0.0,0.0,38,0.00,,---,0.00,VWS V14.01,2013-03-11 18:59:00,
2013-03-11 15:04:00,49.1,24.6,29.92,WSW,250,0.0,0.0,38,0.00,,---,0.00,VWS V14.01,2013-03-11 19:04:00,
2013-03-11 15:09:00,49.3,24.8,29.92,SW,235,5.8,5.8,38,0.00,,---,0.00,VWS V14.01,2013-03-11 19:09:00,
2013-03-11 15:14:00,49.3,24.8,29.89,West,276,4.9,5.8,38,0.00,,---,0.00,VWS V14.01,2013-03-11 19:14:00,
2013-03-11 15:19:00,49.1,24.6,29.89,North,2,0.0,3.1,38,0.00,,---,0.00,VWS V14.01,2013-03-11 19:19:00,
2013-03-11 15:25:00,49.1,24.6,29.89,NNE,33,4.9,5.8,38,0.00,,---,0.00,VWS V14.01,2013-03-11 19:25:00,
2013-03-11 15:30:00,49.1,24.6,29.89,West,278,3.6,3.6,38,0.00,,---,0.00,VWS V14.01,2013-03-11 19:30:00,
2013-03-11 15:35:00,49.1,25.2,29.89,WNW,294,3.6,7.6,39,0.00,,---,0.00,VWS V14.01,2013-03-11 19:35:00,
2013-03-11 15:40:00,49.3,25.4,29.89,WNW,282,11.0,11.0,39,0.00,,---,0.00,VWS V14.01,2013-03-11 19:40:00,
2013-03-11 15:45:00,49.5,25.5,29.86,WSW,252,5.4,10.1,39,0.00,,---,0.00,VWS V14.01,2013-03-11 19:45:00,
2013-03-11 15:50:00,49.5,25.5,29.86,WSW,250,9.6,13.6,39,0.00,,---,0.00,VWS V14.01,2013-03-11 19:50:00,
2013-03-11 15:55:00,49.3,25.4,29.86,NNW,340,6.3,8.7,39,0.00,,---,0.00,VWS V14.01,2013-03-11 19:55:00,
2013-03-11 16:00:00,49.1,25.8,29.86,North,353,6.3,6.3,40,0.00,,---,0.00,VWS V14.01,2013-03-11 20:00:00,
2013-03-11 16:05:00,48.9,25.7,29.86,NW,324,2.7,2.7,40,0.00,,---,0.00,VWS V14.01,2013-03-11 20:05:00,
2013-03-11 16:10:00,48.9,26.3,29.86,NW,314,5.8,5.8,41,0.00,,---,0.00,VWS V14.01,2013-03-11 20:10:00,
2013-03-11 16:15:00,48.9,26.3,29.86,NW,310,4.0,4.0,41,0.00,,---,0.00,VWS V14.01,2013-03-11 20:15:00,
2013-03-11 16:20:00,48.9,28.0,29.86,WNW,300,11.9,11.9,44,0.00,,---,0.00,VWS V14.01,2013-03-11 20:20:00,
2013-03-11 16:25:00,48.7,28.4,29.86,WNW,288,11.9,11.9,45,0.00,,---,0.00,VWS V14.01,2013-03-11 20:25:00,
2013-03-11 16:30:00,48.7,28.4,29.86,WSW,245,3.6,4.0,45,0.00,,---,0.00,VWS V14.01,2013-03-11 20:30:00,
2013-03-11 16:35:00,48.7,29.4,29.86,NE,46,6.3,6.3,47,0.00,,---,0.00,VWS V14.01,2013-03-11 20:35:00,
2013-03-11 16:40:00,49.3,31.0,29.86,WSW,241,8.7,11.9,49,0.00,,---,0.00,VWS V14.01,2013-03-11 20:40:00,
2013-03-11 16:45:00,49.5,31.1,29.89,South,172,7.6,7.6,49,0.00,,---,0.00,VWS V14.01,2013-03-11 20:45:00,
2013-03-11 16:50:00,49.6,31.3,29.89,NW,307,4.9,5.4,49,0.00,,---,0.00,VWS V14.01,2013-03-11 20:50:00,
2013-03-11 16:55:00,49.6,31.8,29.86,NW,321,5.8,9.6,50,0.00,,---,0.00,VWS V14.01,2013-03-11 20:55:00,
2013-03-11 17:00:00,49.5,31.6,29.86,WSW,254,8.3,9.6,50,0.00,,---,0.00,VWS V14.01,2013-03-11 21:00:00,
2013-03-11 17:05:00,49.6,31.8,29.86,West,263,6.3,8.1,50,0.00,,---,0.00,VWS V14.01,2013-03-11 21:05:00,
2013-03-11 17:10:00,49.8,32.9,29.86,WNW,302,8.1,12.3,52,0.00,,---,0.00,VWS V14.01,2013-03-11 21:10:00,
2013-03-11 17:16:00,50.0,32.6,29.86,ESE,104,3.6,3.6,51,0.00,,---,0.00,VWS V14.01,2013-03-11 21:16:00,
2013-03-11 17:20:00,50.2,33.2,29.86,WSW,249,16.8,18.8,52,0.00,,---,0.00,VWS V14.01,2013-03-11 21:20:00,
2013-03-11 17:25:00,50.4,32.9,29.86,West,265,5.4,6.3,51,0.00,,---,0.00,VWS V14.01,2013-03-11 21:25:00,
2013-03-11 17:31:00,50.4,32.9,29.83,West,269,4.0,6.3,51,0.00,,---,0.00,VWS V14.01,2013-03-11 21:31:00,
2013-03-11 17:36:00,50.5,33.6,29.83,WNW,303,10.1,10.1,52,0.00,,---,0.00,VWS V14.01,2013-03-11 21:36:00,
2013-03-11 17:41:00,50.7,33.8,29.83,WNW,291,5.8,6.3,52,0.00,,---,0.00,VWS V14.01,2013-03-11 21:41:00,
2013-03-11 17:46:00,50.7,33.8,29.83,WNW,289,8.7,10.5,52,0.00,,---,0.00,VWS V14.01,2013-03-11 21:46:00,
2013-03-11 17:51:00,50.7,33.8,29.83,SW,226,7.2,8.3,52,0.00,,---,0.00,VWS V14.01,2013-03-11 21:51:00,
2013-03-11 17:56:00,50.7,34.2,29.86,NE,44,5.4,5.4,53,0.00,,---,0.00,VWS V14.01,2013-03-11 21:56:00,
2013-03-11 18:01:00,50.7,34.2,29.86,SW,236,11.0,11.0,53,0.00,,---,0.00,VWS V14.01,2013-03-11 22:01:00,
2013-03-11 18:07:00,50.9,34.9,29.86,West,271,5.8,8.7,54,0.00,,---,0.00,VWS V14.01,2013-03-11 22:07:00,
2013-03-11 18:12:00,51.1,35.0,29.86,West,266,5.4,5.4,54,0.00,,---,0.00,VWS V14.01,2013-03-11 22:12:00,
2013-03-11 18:17:00,51.1,35.0,29.86,WSW,252,8.1,8.7,54,0.00,,---,0.00,VWS V14.01,2013-03-11 22:17:00,
2013-03-11 18:22:00,51.3,35.7,29.86,SW,215,6.3,10.5,55,0.00,,---,0.00,VWS V14.01,2013-03-11 22:22:00,
2013-03-11 18:27:00,51.4,35.4,29.86,West,261,6.3,7.6,54,0.00,,---,0.00,VWS V14.01,2013-03-11 22:27:00,
2013-03-11 18:32:00,51.4,35.4,29.86,West,277,0.0,3.6,54,0.00,,---,0.00,VWS V14.01,2013-03-11 22:32:00,
2013-03-11 18:37:00,51.4,35.4,29.86,WSW,255,5.4,5.4,54,0.00,,---,0.00,VWS V14.01,2013-03-11 22:37:00,
2013-03-11 18:42:00,51.6,35.5,29.86,WSW,258,12.8,12.8,54,0.00,,---,0.00,VWS V14.01,2013-03-11 22:42:00,
2013-03-11 18:47:00,52.0,34.9,29.86,NW,306,10.5,11.0,52,0.00,,---,0.00,VWS V14.01,2013-03-11 22:47:00,
2013-03-11 18:52:00,52.2,35.6,29.86,WNW,295,8.7,8.7,53,0.00,,---,0.00,VWS V14.01,2013-03-11 22:52:00,
2013-03-11 18:57:00,52.2,35.6,29.83,ENE,70,5.4,5.4,53,0.00,,---,0.00,VWS V14.01,2013-03-11 22:57:00,
2013-03-11 19:03:00,52.2,35.6,29.83,West,275,7.6,8.3,53,0.00,,---,0.00,VWS V14.01,2013-03-11 23:03:00,
2013-03-11 19:08:00,52.2,35.6,29.83,West,279,8.1,8.1,53,0.00,,---,0.00,VWS V14.01,2013-03-11 23:08:00,
2013-03-11 19:13:00,52.2,35.6,29.80,WNW,293,5.4,7.2,53,0.00,,---,0.00,VWS V14.01,2013-03-11 23:13:00,
2013-03-11 19:18:00,52.3,35.7,29.80,West,273,9.2,14.5,53,0.00,,---,0.00,VWS V14.01,2013-03-11 23:18:00,
2013-03-11 19:23:00,52.3,35.7,29.80,WNW,282,4.0,9.6,53,0.00,,---,0.00,VWS V14.01,2013-03-11 23:23:00,
2013-03-11 19:28:00,52.5,35.4,29.83,WNW,303,8.1,8.7,52,0.00,,---,0.00,VWS V14.01,2013-03-11 23:28:00,
2013-03-11 19:33:00,52.3,35.7,29.83,NNW,339,3.1,11.0,53,0.00,,---,0.00,VWS V14.01,2013-03-11 23:33:00,
2013-03-11 19:38:00,52.3,35.7,29.83,NW,320,7.6,7.6,53,0.00,,---,0.00,VWS V14.01,2013-03-11 23:38:00,
2013-03-11 19:43:00,52.2,36.0,29.83,NNW,348,12.8,12.8,54,0.00,,---,0.00,VWS V14.01,2013-03-11 23:43:00,
2013-03-11 19:48:00,52.2,35.6,29.83,West,275,7.6,7.6,53,0.00,,---,0.00,VWS V14.01,2013-03-11 23:48:00,
2013-03-11 19:53:00,52.5,35.9,29.83,SSW,206,5.4,7.6,53,0.00,,---,0.00,VWS V14.01,2013-03-11 23:53:00,
2013-03-11 19:58:00,52.5,35.9,29.83,WSW,258,4.9,5.4,53,0.00,,---,0.00,VWS V14.01,2013-03-11 23:58:00,
2013-03-11 20:03:00,52.5,35.4,29.83,WNW,298,2.7,4.0,52,0.00,,---,0.00,VWS V14.01,2013-03-12 00:03:00,
2013-03-11 20:08:00,52.3,35.7,29.83,West,261,5.8,8.3,53,0.00,,---,0.00,VWS V14.01,2013-03-12 00:08:00,
2013-03-11 20:13:00,52.3,35.7,29.83,NW,309,6.3,8.1,53,0.00,,---,0.00,VWS V14.01,2013-03-12 00:13:00,
2013-03-11 20:18:00,52.3,35.7,29.83,NW,307,5.4,7.6,53,0.00,,---,0.00,VWS V14.01,2013-03-12 00:18:00,
2013-03-11 20:24:00,52.2,35.6,29.83,NW,308,4.0,7.2,53,0.00,,---,0.00,VWS V14.01,2013-03-12 00:24:00,
2013-03-11 20:29:00,52.2,35.6,29.83,North,10,3.1,11.0,53,0.00,,---,0.00,VWS V14.01,2013-03-12 00:29:00,
2013-03-11 20:34:00,52.3,35.7,29.83,West,265,8.7,10.1,53,0.00,,---,0.00,VWS V14.01,2013-03-12 00:34:00,
2013-03-11 20:39:00,52.5,35.9,29.83,NNW,328,5.4,10.5,53,0.00,,---,0.00,VWS V14.01,2013-03-12 00:39:00,
2013-03-11 20:44:00,52.7,36.1,29.83,West,266,8.7,8.7,53,0.00,,---,0.00,VWS V14.01,2013-03-12 00:44:00,
2013-03-11 20:49:00,52.7,36.1,29.83,West,277,6.3,6.3,53,0.00,,---,0.00,VWS V14.01,2013-03-12 00:49:00,
2013-03-11 20:54:00,52.5,35.9,29.83,ENE,65,3.6,8.7,53,0.00,,---,0.00,VWS V14.01,2013-03-12 00:54:00,
2013-03-11 20:59:00,52.3,36.7,29.83,NW,318,6.3,6.3,55,0.00,,---,0.00,VWS V14.01,2013-03-12 00:59:00,
2013-03-11 21:04:00,52.3,37.1,29.83,WNW,295,7.6,8.1,56,0.00,,---,0.00,VWS V14.01,2013-03-12 01:04:00,
2013-03-11 21:09:00,52.0,37.7,29.83,NNE,17,4.9,8.7,58,0.00,,---,0.00,VWS V14.01,2013-03-12 01:09:00,
2013-03-11 21:14:00,51.8,38.4,29.80,SW,224,15.9,15.9,60,0.00,,---,0.00,VWS V14.01,2013-03-12 01:14:00,
2013-03-11 21:19:00,51.8,38.4,29.80,NW,321,5.4,8.1,60,0.00,,---,0.00,VWS V14.01,2013-03-12 01:19:00,
2013-03-11 21:24:00,52.0,38.5,29.80,NW,314,6.7,10.1,60,0.00,,---,0.00,VWS V14.01,2013-03-12 01:24:00,
2013-03-11 21:29:00,51.8,38.8,29.80,West,270,8.7,12.8,61,0.00,,---,0.00,VWS V14.01,2013-03-12 01:29:00,
2013-03-11 21:35:00,52.0,38.5,29.80,WSW,248,4.0,8.3,60,0.00,,---,0.00,VWS V14.01,2013-03-12 01:35:00,
2013-03-11 21:40:00,52.2,38.7,29.80,North,0,8.3,10.1,60,0.00,,---,0.00,VWS V14.01,2013-03-12 01:40:00,
2013-03-11 21:45:00,52.2,38.7,29.80,NW,319,5.4,11.9,60,0.00,,---,0.00,VWS V14.01,2013-03-12 01:45:00,
2013-03-11 21:50:00,52.3,38.9,29.80,WNW,301,6.3,8.3,60,0.00,,---,0.00,VWS V14.01,2013-03-12 01:50:00,
2013-03-11 21:55:00,52.3,38.9,29.80,West,281,12.8,12.8,60,0.00,,---,0.00,VWS V14.01,2013-03-12 01:55:00,
2013-03-11 22:00:00,52.2,39.1,29.80,WSW,244,10.5,12.3,61,0.00,,---,0.00,VWS V14.01,2013-03-12 02:00:00,
2013-03-11 22:05:00,52.3,39.3,29.80,West,271,8.3,8.3,61,0.00,,---,0.00,VWS V14.01,2013-03-12 02:05:00,
2013-03-11 22:10:00,52.3,38.9,29.80,WSW,252,6.3,8.1,60,0.00,,---,0.00,VWS V14.01,2013-03-12 02:10:00,
2013-03-11 22:15:00,52.3,39.3,29.80,West,261,8.7,8.7,61,0.00,,---,0.00,VWS V14.01,2013-03-12 02:15:00,
2013-03-11 22:20:00,52.3,39.3,29.80,WSW,258,8.3,10.1,61,0.00,,---,0.00,VWS V14.01,2013-03-12 02:20:00,
2013-03-11 22:25:00,52.2,39.5,29.80,WNW,287,7.6,7.6,62,0.00,,---,0.00,VWS V14.01,2013-03-12 02:25:00,
2013-03-11 22:30:00,52.3,39.3,29.77,WNW,291,7.2,8.3,61,0.00,,---,0.00,VWS V14.01,2013-03-12 02:30:00,
2013-03-11 22:35:00,52.2,39.5,29.77,SW,227,7.6,7.6,62,0.00,,---,0.00,VWS V14.01,2013-03-12 02:35:00,
2013-03-11 22:40:00,52.2,39.5,29.77,WSW,258,6.3,10.1,62,0.00,,---,0.00,VWS V14.01,2013-03-12 02:40:00,
2013-03-11 22:45:00,52.2,39.5,29.80,West,280,15.4,15.4,62,0.00,,---,0.00,VWS V14.01,2013-03-12 02:45:00,
2013-03-11 22:50:00,52.3,39.7,29.80,West,279,8.1,8.7,62,0.00,,---,0.00,VWS V14.01,2013-03-12 02:50:00,
2013-03-11 22:55:00,52.2,40.0,29.80,WNW,297,8.1,13.2,63,0.00,,---,0.00,VWS V14.01,2013-03-12 02:55:00,
2013-03-11 23:00:00,52.2,40.4,29.80,WSW,245,8.1,10.1,64,0.00,,---,0.00,VWS V14.01,2013-03-12 03:00:00,
2013-03-11 23:05:00,52.2,40.4,29.80,WNW,285,12.3,12.3,64,0.00,,---,0.00,VWS V14.01,2013-03-12 03:05:00,
2013-03-11 23:11:00,52.0,40.6,29.80,West,264,13.2,13.2,65,0.00,,---,0.00,VWS V14.01,2013-03-12 03:11:00,
2013-03-11 23:16:00,52.2,41.2,29.80,West,272,11.0,11.9,66,0.00,,---,0.00,VWS V14.01,2013-03-12 03:16:00,
2013-03-11 23:21:00,52.2,41.2,29.80,West,261,8.7,10.5,66,0.00,,---,0.00,VWS V14.01,2013-03-12 03:21:00,
2013-03-11 23:26:00,52.2,41.5,29.77,SSW,203,12.3,12.3,67,0.00,,---,0.00,VWS V14.01,2013-03-12 03:26:00,
2013-03-11 23:31:00,52.2,41.9,29.77,West,279,10.5,10.5,68,0.00,,---,0.00,VWS V14.01,2013-03-12 03:31:00,
2013-03-11 23:36:00,52.0,41.8,29.77,West,279,9.6,12.8,68,0.00,,---,0.00,VWS V14.01,2013-03-12 03:36:00,
2013-03-11 23:42:00,52.0,42.1,29.77,WNW,294,5.4,11.0,69,0.08,,---,0.08,VWS V14.01,2013-03-12 03:42:00,
2013-03-11 23:47:00,52.0,41.8,29.77,WNW,297,10.5,10.5,68,0.08,,---,0.08,VWS V14.01,2013-03-12 03:47:00,
2013-03-11 23:52:00,52.2,41.9,29.77,WNW,287,12.8,15.0,68,0.08,,---,0.08,VWS V14.01,2013-03-12 03:52:00,
2013-03-11 23:57:00,52.2,41.9,29.77,NNW,341,6.3,6.3,68,0.08,,---,0.08,VWS V14.01,2013-03-12 03:57:00,